FW3936 Weather Reports


Display with metric or nautical units.
time (UTC)temp
F
wind
direction
speed
MPH
gust
MPH
rain 1hr
in
rain 24hr
in
rain mn
in
humidity
%
barometer
mb
20260506061520 74 128 2.0 9.0 0.00 0.00 0.00 73 1009.6
20260506044511 75 120 3.0 10.0 0.00 0.00 0.00 73 1009.2
20260506043016 75 126 2.0 7.0 0.00 0.00 0.00 73 1009.2
20260506041509 75 135 4.0 10.0 0.00 0.00 0.00 73 1009.2
20260506040011 75 130 2.0 10.0 0.00 0.00 0.00 74 1009.0
20260506034507 75 127 4.0 9.0 0.00 0.00 0.00 74 1008.8
20260506033006 75 128 2.0 5.0 0.00 0.00 0.00 74 1008.7
20260506031506 76 123 4.0 7.0 0.00 0.00 0.00 74 1008.4
20260506030005 76 113 2.0 7.0 0.00 0.00 0.00 74 1008.2
20260506024511 76 102 3.0 8.0 0.00 0.00 0.00 74 1007.9
20260506023004 77 110 2.0 7.0 0.00 0.00 0.00 73 1007.6
20260506021505 77 110 3.0 8.0 0.00 0.00 0.00 73 1007.5
20260506020003 77 131 2.0 4.0 0.00 0.00 0.00 73 1007.4
20260506014504 77 131 1.0 4.0 0.00 0.00 0.00 73 1007.0
20260506013001 78 131 1.0 3.0 0.00 0.00 0.00 72 1006.8
20260506011600 79 131 1.0 4.0 0.00 0.00 0.00 72 1007.0
20260506004604 80 133 0.0 2.0 0.00 0.00 0.00 70 1006.9
20260506003112 81 133 0.0 0.0 0.00 0.00 0.00 69 1006.7
20260506001618 81 133 0.0 2.0 0.00 0.00 0.00 68 1006.7
20260505234611 82 133 0.0 4.0 0.00 0.00 0.00 66 1006.5
20260505233055 82 133 1.0 4.0 0.00 0.00 0.00 66 1006.5
20260505231555 83 133 0.0 3.0 0.00 0.00 0.00 65 1006.4
20260505230054 83 136 2.0 6.0 0.00 0.00 0.00 65 1006.5
20260505224552 83 128 0.0 6.0 0.00 0.00 0.00 65 1006.3
20260505223104 82 127 0.0 5.0 0.00 0.00 0.00 65 1006.5
20260505221550 83 134 1.0 7.0 0.00 0.00 0.00 64 1006.4
20260505220049 83 124 0.0 4.0 0.00 0.00 0.00 63 1006.5
20260505214555 83 94 2.0 6.0 0.00 0.00 0.00 64 1006.6
20260505213044 83 133 2.0 9.0 0.00 0.00 0.00 64 1007.0
20260505211549 83 132 2.0 6.0 0.00 0.00 0.00 65 1007.1
20260505210040 83 132 1.0 6.0 0.00 0.00 0.00 64 1007.3
20260505204538 83 133 1.0 5.0 0.00 0.00 0.00 64 1007.5
20260505203049 83 132 2.0 8.0 0.00 0.00 0.00 64 1007.8
20260505201531 82 132 1.0 5.0 0.00 0.00 0.00 66 1008.0
20260505200029 82 134 2.0 5.0 0.00 0.00 0.00 64 1008.1
20260505194525 81 153 2.0 6.0 0.00 0.00 0.00 66 1008.3
20260505193023 81 132 2.0 8.0 0.00 0.00 0.00 67 1008.4
20260505191521 80 141 1.0 7.0 0.00 0.00 0.00 68 1008.5
20260505190019 80 144 0.0 8.0 0.00 0.00 0.00 68 1008.7
20260505184524 79 132 2.0 7.0 0.00 0.00 0.00 69 1009.1
20260505183013 79 164 1.0 4.0 0.00 0.00 0.00 70 1009.2
20260505181510 78 168 2.0 4.0 0.00 0.00 0.00 71 1009.3
20260505180008 78 270 0.0 3.0 0.00 0.00 0.00 71 1009.4
20260505174504 76 170 2.0 5.0 0.00 0.00 0.00 72 1009.5
20260505173002 76 146 2.0 6.0 0.00 0.00 0.00 71 1009.6
20260505171559 76 205 1.0 3.0 0.00 0.00 0.00 73 1009.6
20260505170056 75 205 1.0 4.0 0.00 0.00 0.00 73 1009.6
20260505164552 74 153 1.0 2.0 0.00 0.00 0.00 74 1009.5
20260505163047 73 153 1.0 7.0 0.00 0.00 0.00 74 1009.6
20260505161544 72 182 1.0 3.0 0.00 0.00 0.00 74 1009.6
20260505153043 70 155 1.0 7.0 0.00 0.00 0.00 69 1009.6
20260505151539 70 192 0.0 3.0 0.00 0.00 0.00 67 1009.5
20260505124517 68 142 1.0 6.0 0.00 0.00 0.00 71 1009.1
20260505123013 68 140 0.0 5.0 0.00 0.00 0.00 71 1008.8
20260505121512 68 140 1.0 5.0 0.00 0.00 0.00 71 1008.6
20260505120014 68 140 0.0 3.0 0.00 0.00 0.00 71 1008.4
20260505114511 68 140 0.0 5.0 0.00 0.00 0.00 71 1008.3
20260505113009 68 140 0.0 8.0 0.00 0.00 0.00 71 1008.3
20260505111520 68 142 1.0 5.0 0.00 0.00 0.00 71 1008.3
20260505101509 68 144 1.0 8.0 0.00 0.00 0.00 72 1008.3
20260505100003 68 144 1.0 4.0 0.00 0.00 0.00 72 1008.5
20260505094501 68 143 0.0 6.0 0.00 0.00 0.00 72 1008.5
20260505093100 68 140 1.0 7.0 0.00 0.00 0.00 72 1008.6
20260505091616 68 148 0.0 6.0 0.00 0.00 0.00 73 1008.7
20260505084605 68 146 1.0 9.0 0.00 0.00 0.00 73 1008.6
20260505083105 68 179 1.0 5.0 0.00 0.00 0.00 73 1008.9
20260505081552 68 133 2.0 7.0 0.00 0.00 0.00 74 1009.2
20260505080051 68 132 1.0 9.0 0.00 0.00 0.00 74 1009.1
20260505074549 68 140 2.0 7.0 0.00 0.00 0.00 74 1009.3
20260505073050 69 139 1.0 10.0 0.00 0.00 0.00 74 1009.5
20260505071545 69 139 2.0 8.0 0.00 0.00 0.00 74 1009.8
20260505070058 69 153 2.0 10.0 0.00 0.00 0.00 75 1010.1